CDT,Max TemperatureF,Mean TemperatureF,Min TemperatureF,Max Dew PointF,MeanDew PointF,Min DewpointF,Max Humidity, Mean Humidity, Min Humidity, Max Sea Level PressureIn, Mean Sea Level PressureIn, Min Sea Level PressureIn, Max VisibilityMiles, Mean VisibilityMiles, Min VisibilityMiles, Max Wind SpeedMPH, Mean Wind SpeedMPH, Max Gust SpeedMPH,PrecipitationIn, CloudCover, Events, WindDirDegrees
2012-9-1,88,81,74,77,75,73,100,84,68,30.18,30.12,30.05,10,7,0,22,4,28,1.33,5,Fog-Rain-Thunderstorm,175
2012-9-2,89,82,74,77,75,73,100,84,68,30.07,30.00,29.91,10,8,5,20,7,28,0.00,3,,200
2012-9-3,89,80,71,81,73,70,94,85,75,29.99,29.91,29.84,10,6,0,20,6,28,2.82,7,Fog-Rain-Thunderstorm,179
2012-9-4,86,80,73,79,75,72,100,90,79,29.90,29.88,29.84,10,6,1,12,4,16,0.93,7,Rain-Thunderstorm,167
2012-9-5,90,82,74,75,73,71,94,77,59,29.94,29.89,29.84,10,9,6,14,3,18,T,5,,109
2012-9-6,87,81,74,76,74,70,94,79,63,30.01,29.94,29.89,10,8,5,12,2,15,T,4,Rain,50
2012-9-7,92,82,72,76,73,71,100,76,52,29.97,29.90,29.81,10,8,2,8,2,13,0.00,1,,215
2012-9-8,84,75,65,75,70,60,100,81,62,29.96,29.87,29.82,10,8,5,20,6,24,T,3,,318
2012-9-9,82,70,57,62,58,54,93,66,39,30.06,30.01,29.95,10,10,9,15,4,20,0.00,0,,350
2012-9-10,85,72,58,66,60,55,100,70,40,30.13,30.09,30.05,10,10,10,10,2,13,0.00,1,,339
2012-9-11,86,73,60,64,62,57,100,70,40,30.22,30.16,30.10,10,10,6,10,2,14,0.00,2,,136
2012-9-12,84,74,64,64,62,58,93,69,45,30.26,30.19,30.15,10,10,9,14,6,20,0.00,3,,89
2012-9-13,87,75,63,66,63,60,87,68,48,30.26,30.20,30.14,10,10,9,12,3,17,0.00,1,,90
2012-9-14,88,76,63,66,63,60,100,71,42,30.22,30.18,30.14,10,8,4,13,3,16,0.00,0,,40
2012-9-15,88,76,63,68,65,62,97,71,45,30.19,30.13,30.07,10,8,5,9,2,13,0.00,1,,46
2012-9-16,88,77,65,71,68,65,93,72,51,30.09,30.03,29.96,10,9,5,13,2,17,T,2,,139
2012-9-17,82,77,72,75,72,68,94,84,74,29.99,29.82,29.73,10,8,2,18,6,26,0.31,7,Rain-Thunderstorm,186
2012-9-18,82,71,60,72,68,55,100,84,67,30.02,29.80,29.71,10,7,1,16,6,23,0.47,7,Rain,335
2012-9-19,77,65,52,57,51,48,100,68,36,30.13,30.08,30.03,10,10,10,12,3,16,0.00,0,,354
2012-9-20,81,66,51,60,53,49,100,67,33,30.13,30.08,30.02,10,10,10,7,1,10,0.00,0,,1
2012-9-21,83,69,55,64,59,53,100,73,45,30.10,30.04,29.97,10,10,7,10,2,13,0.00,0,,229
2012-9-22,87,74,61,66,63,60,100,74,48,30.12,30.05,30.01,10,9,5,13,3,16,0.00,0,,291
2012-9-23,83,70,56,59,56,54,100,70,39,30.20,30.16,30.12,10,10,8,12,4,16,0.00,1,,356
2012-9-24,78,64,50,56,49,44,93,62,31,30.25,30.18,30.13,10,10,10,12,3,14,0.00,0,,18
2012-9-25,82,68,54,61,55,50,93,65,36,30.17,30.13,30.11,10,10,10,10,2,13,0.00,0,,174
2012-9-26,86,71,56,67,62,54,97,73,48,30.18,30.13,30.09,10,10,9,10,2,14,0.00,1,,181
2012-9-27,88,76,63,70,66,62,97,73,48,30.19,30.12,30.06,10,8,2,8,1,12,0.00,1,,199
2012-9-28,88,76,63,70,67,62,100,73,46,30.12,30.05,29.99,10,8,2,7,1,12,0.00,0,,252
2012-9-29,84,75,65,70,68,65,93,76,59,30.01,29.95,29.90,10,7,3,17,2,21,0.07,2,,334
2012-9-30,72,70,68,70,69,66,100,95,90,29.91,29.76,29.62,10,5,1,12,5,17,1.37,8,Rain,81